Year,Month,Day,Hour,Minute,Value (Times are PST for temperature in C)
2008,08,08,00,00,17.00
2008,08,08,00,01,17.00
2008,08,08,00,02,17.00
2008,08,08,00,03,17.00
2008,08,08,00,04,17.00
2008,08,08,00,05,17.00
2008,08,08,00,06,17.10
2008,08,08,00,07,17.10
2008,08,08,00,08,17.10
2008,08,08,00,09,17.10
2008,08,08,00,10,17.10
2008,08,08,00,11,17.10
2008,08,08,00,12,17.00
2008,08,08,00,13,17.10
2008,08,08,00,14,17.10
2008,08,08,00,15,17.10
2008,08,08,00,16,17.10
2008,08,08,00,17,17.10
2008,08,08,00,18,17.10
2008,08,08,00,19,17.10
2008,08,08,00,20,17.10
2008,08,08,00,21,17.10
2008,08,08,00,22,17.10
2008,08,08,00,23,17.10
2008,08,08,00,24,17.10
2008,08,08,00,25,17.10
2008,08,08,00,26,17.00
2008,08,08,00,27,17.00
2008,08,08,00,28,17.00
2008,08,08,00,29,16.90
2008,08,08,00,30,16.90
2008,08,08,00,31,16.90
2008,08,08,00,32,16.80
2008,08,08,00,33,16.80
2008,08,08,00,34,16.80
2008,08,08,00,35,16.80
2008,08,08,00,36,16.70
2008,08,08,00,37,16.70
2008,08,08,00,38,16.70
2008,08,08,00,39,16.70
2008,08,08,00,40,16.70
2008,08,08,00,41,16.70
2008,08,08,00,42,16.70
2008,08,08,00,43,16.70
2008,08,08,00,44,16.70
2008,08,08,00,45,16.70
2008,08,08,00,46,16.70
2008,08,08,00,47,16.70
2008,08,08,00,48,16.70
2008,08,08,00,49,16.70
2008,08,08,00,50,16.70
2008,08,08,00,51,16.70
2008,08,08,00,52,16.70
2008,08,08,00,53,16.70
2008,08,08,00,54,16.60
2008,08,08,00,55,16.60
2008,08,08,00,56,16.50
2008,08,08,00,57,16.40
2008,08,08,00,58,16.40
2008,08,08,00,59,16.40
2008,08,08,01,00,16.40
2008,08,08,01,01,16.40
2008,08,08,01,02,16.30
2008,08,08,01,03,16.30
2008,08,08,01,04,16.30
2008,08,08,01,05,16.30
2008,08,08,01,06,16.30
2008,08,08,01,07,16.30
2008,08,08,01,08,16.30
2008,08,08,01,09,16.30
2008,08,08,01,10,16.30
2008,08,08,01,11,16.30
2008,08,08,01,12,16.30
2008,08,08,01,13,16.30
2008,08,08,01,14,16.30
2008,08,08,01,15,16.30
2008,08,08,01,16,16.30
2008,08,08,01,17,16.30
2008,08,08,01,18,16.30
2008,08,08,01,19,16.30
2008,08,08,01,20,16.20
2008,08,08,01,21,16.20
2008,08,08,01,22,16.20
2008,08,08,01,23,16.20
2008,08,08,01,24,16.20
2008,08,08,01,25,16.20
2008,08,08,01,26,16.20
2008,08,08,01,27,16.30
2008,08,08,01,28,16.30
2008,08,08,01,29,16.30
2008,08,08,01,30,16.30
2008,08,08,01,31,16.30
2008,08,08,01,32,16.30
2008,08,08,01,33,16.30
2008,08,08,01,34,16.30
2008,08,08,01,35,16.30
2008,08,08,01,36,16.30
2008,08,08,01,37,16.20
2008,08,08,01,38,16.20
2008,08,08,01,39,16.20
2008,08,08,01,40,16.20
2008,08,08,01,41,16.10
2008,08,08,01,42,16.10
2008,08,08,01,43,16.10
2008,08,08,01,44,16.10
2008,08,08,01,45,16.10
2008,08,08,01,46,16.10
2008,08,08,01,47,16.10
2008,08,08,01,48,16.00
2008,08,08,01,49,15.90
2008,08,08,01,50,15.90
2008,08,08,01,51,15.90
2008,08,08,01,52,15.90
2008,08,08,01,53,15.80
2008,08,08,01,54,15.80
2008,08,08,01,55,15.80
2008,08,08,01,56,15.80
2008,08,08,01,57,15.70
2008,08,08,01,58,15.60
2008,08,08,01,59,15.60
2008,08,08,02,00,15.60
2008,08,08,02,01,15.60
2008,08,08,02,02,15.60
2008,08,08,02,03,15.50
2008,08,08,02,04,15.50
2008,08,08,02,05,15.50
2008,08,08,02,06,15.50
2008,08,08,02,07,15.50
2008,08,08,02,08,15.50
2008,08,08,02,09,15.50
2008,08,08,02,10,15.50
2008,08,08,02,11,15.50
2008,08,08,02,12,15.50
2008,08,08,02,13,15.50
2008,08,08,02,14,15.50
2008,08,08,02,15,15.50
2008,08,08,02,16,15.40
2008,08,08,02,17,15.30
2008,08,08,02,18,15.30
2008,08,08,02,19,15.30
2008,08,08,02,20,15.30
2008,08,08,02,21,15.30
2008,08,08,02,22,15.30
2008,08,08,02,23,15.30
2008,08,08,02,24,15.30
2008,08,08,02,25,15.30
2008,08,08,02,26,15.30
2008,08,08,02,27,15.30
2008,08,08,02,28,15.30
2008,08,08,02,29,15.30
2008,08,08,02,30,15.30
2008,08,08,02,31,15.30
2008,08,08,02,32,15.30
2008,08,08,02,33,15.30
2008,08,08,02,34,15.30
2008,08,08,02,35,15.30
2008,08,08,02,36,15.30
2008,08,08,02,37,15.30
2008,08,08,02,38,15.30
2008,08,08,02,39,15.30
2008,08,08,02,40,15.30
2008,08,08,02,41,15.30
2008,08,08,02,42,15.30
2008,08,08,02,43,15.40
2008,08,08,02,44,15.40
2008,08,08,02,45,15.40
2008,08,08,02,46,15.40
2008,08,08,02,47,15.40
2008,08,08,02,48,15.40
2008,08,08,02,49,15.40
2008,08,08,02,50,15.40
2008,08,08,02,51,15.40
2008,08,08,02,52,15.30
2008,08,08,02,53,15.30
2008,08,08,02,54,15.30
2008,08,08,02,55,15.30
2008,08,08,02,56,15.30
2008,08,08,02,57,15.20
2008,08,08,02,58,15.20
2008,08,08,02,59,15.20
2008,08,08,03,00,15.20
2008,08,08,03,01,15.20
2008,08,08,03,02,15.20
2008,08,08,03,03,15.20
2008,08,08,03,04,15.10
2008,08,08,03,05,15.10
2008,08,08,03,06,15.10
2008,08,08,03,07,15.10
2008,08,08,03,08,15.10
2008,08,08,03,09,15.20
2008,08,08,03,10,15.20
2008,08,08,03,11,15.20
2008,08,08,03,12,15.10
2008,08,08,03,13,15.10
2008,08,08,03,14,15.10
2008,08,08,03,15,15.10
2008,08,08,03,16,15.10
2008,08,08,03,17,15.10
2008,08,08,03,18,15.10
2008,08,08,03,19,15.10
2008,08,08,03,20,15.00
2008,08,08,03,21,14.90
2008,08,08,03,22,14.90
2008,08,08,03,23,14.80
2008,08,08,03,24,14.80
2008,08,08,03,25,14.70
2008,08,08,03,26,14.70
2008,08,08,03,27,14.70
2008,08,08,03,28,14.80
2008,08,08,03,29,14.80
2008,08,08,03,30,14.80
2008,08,08,03,31,14.70
2008,08,08,03,32,14.70
2008,08,08,03,33,14.60
2008,08,08,03,34,14.60
2008,08,08,03,35,14.60
2008,08,08,03,36,14.50
2008,08,08,03,37,14.50
2008,08,08,03,38,14.50
2008,08,08,03,39,14.50
2008,08,08,03,40,14.50
2008,08,08,03,41,14.50
2008,08,08,03,42,14.50
2008,08,08,03,43,14.40
2008,08,08,03,44,14.30
2008,08,08,03,45,14.20
2008,08,08,03,46,14.10
2008,08,08,03,47,14.00
2008,08,08,03,48,14.00
2008,08,08,03,49,13.90
2008,08,08,03,50,13.90
2008,08,08,03,51,13.90
2008,08,08,03,52,13.90
2008,08,08,03,53,13.90
2008,08,08,03,54,13.90
2008,08,08,03,55,13.90
2008,08,08,03,56,13.90
2008,08,08,03,57,13.90
2008,08,08,03,58,13.90
2008,08,08,03,59,13.90
2008,08,08,04,00,13.80
2008,08,08,04,01,13.70
2008,08,08,04,02,13.60
2008,08,08,04,03,13.50
2008,08,08,04,04,13.50
2008,08,08,04,05,13.50
2008,08,08,04,06,13.40
2008,08,08,04,07,13.40
2008,08,08,04,08,13.40
2008,08,08,04,09,13.40
2008,08,08,04,10,13.40
2008,08,08,04,11,13.40
2008,08,08,04,12,13.40
2008,08,08,04,13,13.40
2008,08,08,04,14,13.30
2008,08,08,04,15,13.30
2008,08,08,04,16,13.30
2008,08,08,04,17,13.30
2008,08,08,04,18,13.30
2008,08,08,04,19,13.30
2008,08,08,04,20,13.20
2008,08,08,04,21,13.20
2008,08,08,04,22,13.20
2008,08,08,04,23,13.20
2008,08,08,04,24,13.20
2008,08,08,04,25,13.20
2008,08,08,04,26,13.30
2008,08,08,04,27,13.30
2008,08,08,04,28,13.30
2008,08,08,04,29,13.30
2008,08,08,04,30,13.30
2008,08,08,04,31,13.30
2008,08,08,04,32,13.30
2008,08,08,04,33,13.30
2008,08,08,04,34,13.20
2008,08,08,04,35,13.20
2008,08,08,04,36,13.20
2008,08,08,04,37,13.10
2008,08,08,04,38,13.00
2008,08,08,04,39,13.00
2008,08,08,04,40,13.00
2008,08,08,04,41,13.00
2008,08,08,04,42,13.00
2008,08,08,04,43,12.90
2008,08,08,04,44,12.90
2008,08,08,04,45,12.80
2008,08,08,04,46,12.80
2008,08,08,04,47,12.80
2008,08,08,04,48,12.80
2008,08,08,04,49,12.80
2008,08,08,04,50,12.80
2008,08,08,04,51,12.80
2008,08,08,04,52,12.80
2008,08,08,04,53,12.80
2008,08,08,04,54,12.80
2008,08,08,04,55,12.80
2008,08,08,04,56,12.80
2008,08,08,04,57,12.80
2008,08,08,04,58,12.70
2008,08,08,04,59,12.70
2008,08,08,05,00,12.70
2008,08,08,05,01,12.60
2008,08,08,05,02,12.60
2008,08,08,05,03,12.60
2008,08,08,05,04,12.60
2008,08,08,05,05,12.60
2008,08,08,05,06,12.50
2008,08,08,05,07,12.50
2008,08,08,05,08,12.50
2008,08,08,05,09,12.50
2008,08,08,05,10,12.40
2008,08,08,05,11,12.40
2008,08,08,05,12,12.40
2008,08,08,05,13,12.40
2008,08,08,05,14,12.50
2008,08,08,05,15,12.50
2008,08,08,05,16,12.50
2008,08,08,05,17,12.50
2008,08,08,05,18,12.50
2008,08,08,05,19,12.50
2008,08,08,05,20,12.50
2008,08,08,05,21,12.50
2008,08,08,05,22,12.50
2008,08,08,05,23,12.50
2008,08,08,05,24,12.50
2008,08,08,05,25,12.50
2008,08,08,05,26,12.50
2008,08,08,05,27,12.60
2008,08,08,05,28,12.60
2008,08,08,05,29,12.70
2008,08,08,05,30,12.60
2008,08,08,05,31,12.60
2008,08,08,05,32,12.60
2008,08,08,05,33,12.50
2008,08,08,05,34,12.50
2008,08,08,05,35,12.50
2008,08,08,05,36,12.50
2008,08,08,05,37,12.40
2008,08,08,05,38,12.40
2008,08,08,05,39,12.40
2008,08,08,05,40,12.40
2008,08,08,05,41,12.40
2008,08,08,05,42,12.40
2008,08,08,05,43,12.40
2008,08,08,05,44,12.40
2008,08,08,05,45,12.40
2008,08,08,05,46,12.40
2008,08,08,05,47,12.40
2008,08,08,05,48,12.40
2008,08,08,05,49,12.40
2008,08,08,05,50,12.40
2008,08,08,05,51,12.40
2008,08,08,05,52,12.30
2008,08,08,05,53,12.30
2008,08,08,05,54,12.30
2008,08,08,05,55,12.30
2008,08,08,05,56,12.30
2008,08,08,05,57,12.30
2008,08,08,05,58,12.30
2008,08,08,05,59,12.30
2008,08,08,06,00,12.30
2008,08,08,06,01,12.30
2008,08,08,06,02,12.30
2008,08,08,06,03,12.30
2008,08,08,06,04,12.30
2008,08,08,06,05,12.30
2008,08,08,06,06,12.20
2008,08,08,06,07,12.20
2008,08,08,06,08,12.20
2008,08,08,06,09,12.20
2008,08,08,06,10,12.10
2008,08,08,06,11,12.10
2008,08,08,06,12,12.00
2008,08,08,06,13,12.00
2008,08,08,06,14,11.90
2008,08,08,06,15,11.90
2008,08,08,06,16,11.80
2008,08,08,06,17,11.80
2008,08,08,06,18,11.80
2008,08,08,06,19,11.70
2008,08,08,06,20,11.70
2008,08,08,06,21,11.70
2008,08,08,06,22,11.70
2008,08,08,06,23,11.70
2008,08,08,06,24,11.70
2008,08,08,06,25,11.70
2008,08,08,06,26,11.60
2008,08,08,06,27,11.50
2008,08,08,06,28,11.40
2008,08,08,06,29,11.40
2008,08,08,06,30,11.40
2008,08,08,06,31,11.40
2008,08,08,06,32,11.40
2008,08,08,06,33,11.40
2008,08,08,06,34,11.40
2008,08,08,06,35,11.40
2008,08,08,06,36,11.40
2008,08,08,06,37,11.40
2008,08,08,06,38,11.40
2008,08,08,06,39,11.40
2008,08,08,06,40,11.40
2008,08,08,06,41,11.40
2008,08,08,06,42,11.40
2008,08,08,06,43,11.50
2008,08,08,06,44,11.60
2008,08,08,06,45,11.60
2008,08,08,06,46,11.60
2008,08,08,06,47,11.60
2008,08,08,06,48,11.60
2008,08,08,06,49,11.60
2008,08,08,06,50,11.60
2008,08,08,06,51,11.60
2008,08,08,06,52,11.60
2008,08,08,06,53,11.60
2008,08,08,06,54,11.60
2008,08,08,06,55,11.60
2008,08,08,06,56,11.70
2008,08,08,06,57,11.70
2008,08,08,06,58,11.60
2008,08,08,06,59,11.60
2008,08,08,07,00,11.60
2008,08,08,07,01,11.60
2008,08,08,07,02,11.60
2008,08,08,07,03,11.60
2008,08,08,07,04,11.60
2008,08,08,07,05,11.60
2008,08,08,07,06,11.60
2008,08,08,07,07,11.60
2008,08,08,07,08,11.60
2008,08,08,07,09,11.60
2008,08,08,07,10,11.70
2008,08,08,07,11,11.80
2008,08,08,07,12,11.80
2008,08,08,07,13,11.80
2008,08,08,07,14,11.80
2008,08,08,07,15,11.70
2008,08,08,07,16,11.70
2008,08,08,07,17,11.80
2008,08,08,07,18,11.80
2008,08,08,07,19,11.80
2008,08,08,07,20,11.90
2008,08,08,07,21,11.90
2008,08,08,07,22,12.00
2008,08,08,07,23,12.00
2008,08,08,07,24,12.00
2008,08,08,07,25,12.00
2008,08,08,07,26,11.90
2008,08,08,07,27,11.90
2008,08,08,07,28,11.90
2008,08,08,07,29,11.90
2008,08,08,07,30,11.90
2008,08,08,07,31,11.90
2008,08,08,07,32,12.00
2008,08,08,07,33,12.00
2008,08,08,07,34,12.00
2008,08,08,07,35,12.00
2008,08,08,07,36,12.00
2008,08,08,07,37,12.10
2008,08,08,07,38,12.10
2008,08,08,07,39,12.10
2008,08,08,07,40,12.10
2008,08,08,07,41,12.10
2008,08,08,07,42,12.20
2008,08,08,07,43,12.20
2008,08,08,07,44,12.30
2008,08,08,07,45,12.30
2008,08,08,07,46,12.40
2008,08,08,07,47,12.40
2008,08,08,07,48,12.50
2008,08,08,07,49,12.50
2008,08,08,07,50,12.60
2008,08,08,07,51,12.60
2008,08,08,07,52,12.60
2008,08,08,07,53,12.60
2008,08,08,07,54,12.60
2008,08,08,07,55,12.50
2008,08,08,07,56,12.50
2008,08,08,07,57,12.50
2008,08,08,07,58,12.50
2008,08,08,07,59,12.40
2008,08,08,08,00,12.40
2008,08,08,08,01,12.30
2008,08,08,08,02,12.30
2008,08,08,08,03,12.40
2008,08,08,08,04,12.50
2008,08,08,08,05,12.50
2008,08,08,08,06,12.40
2008,08,08,08,07,12.40
2008,08,08,08,08,12.40
2008,08,08,08,09,12.50
2008,08,08,08,10,12.50
2008,08,08,08,11,12.60
2008,08,08,08,12,12.70
2008,08,08,08,13,12.60
2008,08,08,08,14,12.60
2008,08,08,08,15,12.50
2008,08,08,08,16,12.50
2008,08,08,08,17,12.50
2008,08,08,08,18,12.40
2008,08,08,08,19,12.30
2008,08,08,08,20,12.30
2008,08,08,08,21,12.30
2008,08,08,08,22,12.30
2008,08,08,08,23,12.30
2008,08,08,08,24,12.30
2008,08,08,08,25,12.30
2008,08,08,08,26,12.30
2008,08,08,08,27,12.30
2008,08,08,08,28,12.40
2008,08,08,08,29,12.40
2008,08,08,08,30,12.50
2008,08,08,08,31,12.60
2008,08,08,08,32,12.60
2008,08,08,08,33,12.60
2008,08,08,08,34,12.50
2008,08,08,08,35,12.60
2008,08,08,08,36,12.60
2008,08,08,08,37,12.70
2008,08,08,08,38,12.80
2008,08,08,08,39,12.80
2008,08,08,08,40,12.80
2008,08,08,08,41,12.90
2008,08,08,08,42,12.90
2008,08,08,08,43,13.00
2008,08,08,08,44,13.10
2008,08,08,08,45,13.10
2008,08,08,08,46,13.20
2008,08,08,08,47,13.30
2008,08,08,08,48,13.40
2008,08,08,08,49,13.50
2008,08,08,08,50,13.60
2008,08,08,08,51,13.60
2008,08,08,08,52,13.70
2008,08,08,08,53,13.70
2008,08,08,08,54,13.90
2008,08,08,08,55,13.90
2008,08,08,08,56,14.10
2008,08,08,08,57,14.20
2008,08,08,08,58,14.30
2008,08,08,08,59,14.40
2008,08,08,09,00,14.50
2008,08,08,09,01,14.60
2008,08,08,09,02,14.50
2008,08,08,09,03,14.40
2008,08,08,09,04,14.40
2008,08,08,09,05,14.40
2008,08,08,09,06,14.40
2008,08,08,09,07,14.40
2008,08,08,09,08,14.40
2008,08,08,09,09,14.40
2008,08,08,09,10,14.40
2008,08,08,09,11,14.40
2008,08,08,09,12,14.40
2008,08,08,09,13,14.40
2008,08,08,09,14,14.40
2008,08,08,09,15,14.50
2008,08,08,09,16,14.50
2008,08,08,09,17,14.60
2008,08,08,09,18,14.60
2008,08,08,09,19,14.70
2008,08,08,09,20,14.90
2008,08,08,09,21,15.00
2008,08,08,09,22,15.20
2008,08,08,09,23,15.30
2008,08,08,09,24,15.40
2008,08,08,09,25,15.50
2008,08,08,09,26,15.70
2008,08,08,09,27,15.80
2008,08,08,09,28,16.00
2008,08,08,09,29,16.10
2008,08,08,09,30,16.10
2008,08,08,09,31,16.00
2008,08,08,09,32,16.10
2008,08,08,09,33,16.10
2008,08,08,09,34,16.20
2008,08,08,09,35,16.30
2008,08,08,09,36,16.30
2008,08,08,09,37,16.30
2008,08,08,09,38,16.40
2008,08,08,09,39,16.40
2008,08,08,09,40,16.40
2008,08,08,09,41,16.40
2008,08,08,09,42,16.40
2008,08,08,09,43,16.50
2008,08,08,09,44,16.60
2008,08,08,09,45,16.60
2008,08,08,09,46,16.60
2008,08,08,09,47,16.60
2008,08,08,09,48,16.60
2008,08,08,09,49,16.70
2008,08,08,09,50,16.70
2008,08,08,09,51,16.70
2008,08,08,09,52,16.80
2008,08,08,09,53,16.80
2008,08,08,09,54,16.80
2008,08,08,09,55,16.90
2008,08,08,09,56,17.00
2008,08,08,09,57,17.00
2008,08,08,09,58,17.00
2008,08,08,09,59,16.80
2008,08,08,10,00,16.70
2008,08,08,10,01,16.60
2008,08,08,10,02,16.50
2008,08,08,10,03,16.40
2008,08,08,10,04,16.50
2008,08,08,10,05,16.60
2008,08,08,10,06,16.70
2008,08,08,10,07,16.70
2008,08,08,10,08,16.80
2008,08,08,10,09,16.90
2008,08,08,10,10,17.00
2008,08,08,10,11,17.10
2008,08,08,10,12,17.10
2008,08,08,10,13,17.10
2008,08,08,10,14,17.10
2008,08,08,10,15,17.10
2008,08,08,10,16,17.20
2008,08,08,10,17,17.10
2008,08,08,10,18,16.90
2008,08,08,10,19,16.80
2008,08,08,10,20,16.70
2008,08,08,10,21,16.70
2008,08,08,10,22,16.90
2008,08,08,10,23,17.00
2008,08,08,10,24,17.20
2008,08,08,10,25,17.30
2008,08,08,10,26,17.40
2008,08,08,10,27,17.50
2008,08,08,10,28,17.40
2008,08,08,10,29,17.50
2008,08,08,10,30,17.60
2008,08,08,10,31,17.70
2008,08,08,10,32,17.80
2008,08,08,10,33,17.90
2008,08,08,10,34,17.90
2008,08,08,10,35,18.00
2008,08,08,10,36,18.10
2008,08,08,10,37,18.10
2008,08,08,10,38,18.10
2008,08,08,10,39,18.20
2008,08,08,10,40,18.10
2008,08,08,10,41,17.90
2008,08,08,10,42,17.80
2008,08,08,10,43,17.80
2008,08,08,10,44,17.90
2008,08,08,10,45,17.90
2008,08,08,10,46,17.90
2008,08,08,10,47,18.10
2008,08,08,10,48,18.20
2008,08,08,10,49,18.40
2008,08,08,10,50,18.50
2008,08,08,10,51,18.50
2008,08,08,10,52,18.30
2008,08,08,10,53,18.30
2008,08,08,10,54,18.40
2008,08,08,10,55,18.60
2008,08,08,10,56,18.50
2008,08,08,10,57,18.50
2008,08,08,10,58,18.60
2008,08,08,10,59,18.60
2008,08,08,11,00,18.50
2008,08,08,11,01,18.50
2008,08,08,11,02,18.50
2008,08,08,11,03,18.60
2008,08,08,11,04,18.70
2008,08,08,11,05,18.60
2008,08,08,11,06,18.50
2008,08,08,11,07,18.30
2008,08,08,11,08,18.10
2008,08,08,11,09,17.90
2008,08,08,11,10,17.80
2008,08,08,11,11,17.70
2008,08,08,11,12,17.70
2008,08,08,11,13,17.90
2008,08,08,11,14,17.90
2008,08,08,11,15,18.10
2008,08,08,11,16,18.00
2008,08,08,11,17,17.90
2008,08,08,11,18,17.70
2008,08,08,11,19,17.70
2008,08,08,11,20,17.70
2008,08,08,11,21,17.60
2008,08,08,11,22,17.50
2008,08,08,11,23,17.50
2008,08,08,11,24,17.50
2008,08,08,11,25,17.30
2008,08,08,11,26,17.30
2008,08,08,11,27,17.30
2008,08,08,11,28,17.30
2008,08,08,11,29,17.30
2008,08,08,11,30,17.40
2008,08,08,11,31,17.40
2008,08,08,11,32,17.20
2008,08,08,11,33,17.10
2008,08,08,11,34,17.10
2008,08,08,11,35,17.10
2008,08,08,11,36,17.10
2008,08,08,11,37,17.00
2008,08,08,11,38,17.10
2008,08,08,11,39,17.20
2008,08,08,11,40,17.30
2008,08,08,11,41,17.30
2008,08,08,11,42,17.20
2008,08,08,11,43,17.20
2008,08,08,11,44,17.00
2008,08,08,11,45,16.80
2008,08,08,11,46,16.80
2008,08,08,11,47,16.70
2008,08,08,11,48,16.60
2008,08,08,11,49,16.50
2008,08,08,11,50,16.70
2008,08,08,11,51,16.90
2008,08,08,11,52,17.00
2008,08,08,11,53,17.00
2008,08,08,11,54,17.10
2008,08,08,11,55,17.10
2008,08,08,11,56,17.10
2008,08,08,11,57,17.00
2008,08,08,11,58,16.90
2008,08,08,11,59,16.70
2008,08,08,12,00,16.60
2008,08,08,12,01,16.60
2008,08,08,12,02,16.60
2008,08,08,12,03,16.80
2008,08,08,12,04,17.00
2008,08,08,12,05,17.00
2008,08,08,12,06,17.10
2008,08,08,12,07,17.10
2008,08,08,12,08,16.90
2008,08,08,12,09,16.80
2008,08,08,12,10,16.70
2008,08,08,12,11,16.80
2008,08,08,12,12,16.90
2008,08,08,12,13,17.00
2008,08,08,12,14,17.10
2008,08,08,12,15,17.10
2008,08,08,12,16,17.00
2008,08,08,12,17,17.00
2008,08,08,12,18,17.10
2008,08,08,12,19,17.30
2008,08,08,12,20,17.20
2008,08,08,12,21,17.10
2008,08,08,12,22,16.90
2008,08,08,12,23,16.90
2008,08,08,12,24,16.90
2008,08,08,12,25,17.00
2008,08,08,12,26,17.10
2008,08,08,12,27,17.20
2008,08,08,12,28,17.30
2008,08,08,12,29,17.50
2008,08,08,12,30,17.70
2008,08,08,12,31,17.70
2008,08,08,12,32,17.90
2008,08,08,12,33,17.90
2008,08,08,12,34,18.10
2008,08,08,12,35,18.10
2008,08,08,12,36,17.90
2008,08,08,12,37,17.80
2008,08,08,12,38,17.90
2008,08,08,12,39,17.80
2008,08,08,12,40,17.90
2008,08,08,12,41,18.10
2008,08,08,12,42,18.20
2008,08,08,12,43,18.30
2008,08,08,12,44,18.40
2008,08,08,12,45,18.20
2008,08,08,12,46,18.00
2008,08,08,12,47,17.90
2008,08,08,12,48,18.00
2008,08,08,12,49,18.10
2008,08,08,12,50,18.20
2008,08,08,12,51,18.20
2008,08,08,12,52,18.00
2008,08,08,12,53,17.90
2008,08,08,12,54,17.90
2008,08,08,12,55,18.00
2008,08,08,12,56,17.90
2008,08,08,12,57,17.70
2008,08,08,12,58,17.70
2008,08,08,12,59,17.80
2008,08,08,13,00,17.90
2008,08,08,13,01,17.80
2008,08,08,13,02,17.60
2008,08,08,13,03,17.50
2008,08,08,13,04,17.50
2008,08,08,13,05,17.70
2008,08,08,13,06,17.90
2008,08,08,13,07,18.10
2008,08,08,13,08,18.20
2008,08,08,13,09,18.10
2008,08,08,13,10,18.10
2008,08,08,13,11,18.10
2008,08,08,13,12,18.00
2008,08,08,13,13,18.00
2008,08,08,13,14,17.80
2008,08,08,13,15,17.80
2008,08,08,13,16,17.90
2008,08,08,13,17,17.90
2008,08,08,13,18,17.90
2008,08,08,13,19,17.80
2008,08,08,13,20,17.70
2008,08,08,13,21,17.60
2008,08,08,13,22,17.80
2008,08,08,13,23,17.90
2008,08,08,13,24,17.90
2008,08,08,13,25,18.10
2008,08,08,13,26,18.30
2008,08,08,13,27,18.50
2008,08,08,13,28,18.60
2008,08,08,13,29,18.60
2008,08,08,13,30,18.70
2008,08,08,13,31,18.80
2008,08,08,13,32,18.80
2008,08,08,13,33,18.70
2008,08,08,13,34,18.60
2008,08,08,13,35,18.50
2008,08,08,13,36,18.60
2008,08,08,13,37,18.70
2008,08,08,13,38,18.70
2008,08,08,13,39,18.80
2008,08,08,13,40,18.90
2008,08,08,13,41,18.70
2008,08,08,13,42,18.60
2008,08,08,13,43,18.50
2008,08,08,13,44,18.30
2008,08,08,13,45,18.20
2008,08,08,13,46,18.20
2008,08,08,13,47,18.20
2008,08,08,13,48,18.30
2008,08,08,13,49,18.50
2008,08,08,13,50,18.60
2008,08,08,13,51,18.60
2008,08,08,13,52,18.60
2008,08,08,13,53,18.60
2008,08,08,13,54,18.70
2008,08,08,13,55,18.70
2008,08,08,13,56,18.60
2008,08,08,13,57,18.60
2008,08,08,13,58,18.70
2008,08,08,13,59,18.70
2008,08,08,14,00,18.80
2008,08,08,14,01,18.90
2008,08,08,14,02,19.00
2008,08,08,14,03,19.10
2008,08,08,14,04,19.40
2008,08,08,14,05,19.60
2008,08,08,14,06,19.60
2008,08,08,14,07,19.50
2008,08,08,14,08,19.70
2008,08,08,14,09,19.80
2008,08,08,14,10,19.80
2008,08,08,14,11,19.80
2008,08,08,14,12,19.90
2008,08,08,14,13,20.10
2008,08,08,14,14,20.20
2008,08,08,14,15,20.20
2008,08,08,14,16,20.20
2008,08,08,14,17,20.20
2008,08,08,14,18,20.20
2008,08,08,14,19,20.20
2008,08,08,14,20,20.30
2008,08,08,14,21,20.40
2008,08,08,14,22,20.60
2008,08,08,14,23,20.80
2008,08,08,14,24,20.80
2008,08,08,14,25,20.80
2008,08,08,14,26,20.70
2008,08,08,14,27,20.60
2008,08,08,14,28,20.50
2008,08,08,14,29,20.40
2008,08,08,14,30,20.20
2008,08,08,14,31,20.20
2008,08,08,14,32,20.30
2008,08,08,14,33,20.40
2008,08,08,14,34,20.50
2008,08,08,14,35,20.50
2008,08,08,14,36,20.60
2008,08,08,14,37,20.50
2008,08,08,14,38,20.50
2008,08,08,14,39,20.50
2008,08,08,14,40,20.60
2008,08,08,14,41,20.80
2008,08,08,14,42,21.00
2008,08,08,14,43,21.30
2008,08,08,14,44,21.40
2008,08,08,14,45,21.60
2008,08,08,14,46,21.50
2008,08,08,14,47,21.40
2008,08,08,14,48,21.50
2008,08,08,14,49,21.60
2008,08,08,14,50,21.60
2008,08,08,14,51,21.60
2008,08,08,14,52,21.40
2008,08,08,14,53,21.30
2008,08,08,14,54,21.30
2008,08,08,14,55,21.30
2008,08,08,14,56,21.30
2008,08,08,14,57,21.30
2008,08,08,14,58,21.30
2008,08,08,14,59,21.30
2008,08,08,15,00,21.30
2008,08,08,15,01,21.30
2008,08,08,15,02,21.30
2008,08,08,15,03,21.10
2008,08,08,15,04,21.00
2008,08,08,15,05,21.00
2008,08,08,15,06,21.00
2008,08,08,15,07,21.10
2008,08,08,15,08,21.20
2008,08,08,15,09,21.20
2008,08,08,15,10,21.20
2008,08,08,15,11,21.20
2008,08,08,15,12,21.30
2008,08,08,15,13,21.30
2008,08,08,15,14,21.40
2008,08,08,15,15,21.50
2008,08,08,15,16,21.60
2008,08,08,15,17,21.80
2008,08,08,15,18,21.90
2008,08,08,15,19,22.10
2008,08,08,15,20,22.00
2008,08,08,15,21,21.80
2008,08,08,15,22,21.70
2008,08,08,15,23,21.70
2008,08,08,15,24,21.60
2008,08,08,15,25,21.60
2008,08,08,15,26,21.40
2008,08,08,15,27,21.40
2008,08,08,15,28,21.60
2008,08,08,15,29,21.70
2008,08,08,15,30,21.80
2008,08,08,15,31,21.90
2008,08,08,15,32,21.90
2008,08,08,15,33,22.00
2008,08,08,15,34,21.90
2008,08,08,15,35,21.80
2008,08,08,15,36,21.70
2008,08,08,15,37,21.70
2008,08,08,15,38,21.70
2008,08,08,15,39,21.80
2008,08,08,15,40,21.80
2008,08,08,15,41,21.70
2008,08,08,15,42,21.70
2008,08,08,15,43,21.70
2008,08,08,15,44,21.70
2008,08,08,15,45,21.70
2008,08,08,15,46,21.80
2008,08,08,15,47,21.90
2008,08,08,15,48,22.00
2008,08,08,15,49,22.00
2008,08,08,15,50,22.00
2008,08,08,15,51,21.90
2008,08,08,15,52,21.80
2008,08,08,15,53,21.70
2008,08,08,15,54,21.70
2008,08,08,15,55,21.80
2008,08,08,15,56,21.90
2008,08,08,15,57,21.80
2008,08,08,15,58,21.80
2008,08,08,15,59,21.80
2008,08,08,16,00,21.90
2008,08,08,16,01,22.00
2008,08,08,16,02,21.90
2008,08,08,16,03,21.90
2008,08,08,16,04,21.90
2008,08,08,16,05,22.00
2008,08,08,16,06,22.00
2008,08,08,16,07,21.90
2008,08,08,16,08,21.80
2008,08,08,16,09,21.80
2008,08,08,16,10,21.90
2008,08,08,16,11,21.90
2008,08,08,16,12,21.90
2008,08,08,16,13,21.90
2008,08,08,16,14,22.00
2008,08,08,16,15,22.10
2008,08,08,16,16,22.10
2008,08,08,16,17,22.10
2008,08,08,16,18,22.10
2008,08,08,16,19,22.10
2008,08,08,16,20,22.10
2008,08,08,16,21,22.10
2008,08,08,16,22,22.00
2008,08,08,16,23,22.00
2008,08,08,16,24,22.00
2008,08,08,16,25,22.00
2008,08,08,16,26,22.00
2008,08,08,16,27,22.00
2008,08,08,16,28,22.00
2008,08,08,16,29,22.00
2008,08,08,16,30,22.00
2008,08,08,16,31,22.00
2008,08,08,16,32,22.00
2008,08,08,16,33,22.10
2008,08,08,16,34,22.20
2008,08,08,16,35,22.30
2008,08,08,16,36,22.30
2008,08,08,16,37,22.30
2008,08,08,16,38,22.40
2008,08,08,16,39,22.40
2008,08,08,16,40,22.40
2008,08,08,16,41,22.50
2008,08,08,16,42,22.50
2008,08,08,16,43,22.50
2008,08,08,16,44,22.50
2008,08,08,16,45,22.60
2008,08,08,16,46,22.60
2008,08,08,16,47,22.60
2008,08,08,16,48,22.60
2008,08,08,16,49,22.40
2008,08,08,16,50,22.30
2008,08,08,16,51,22.20
2008,08,08,16,52,22.00
2008,08,08,16,53,21.90
2008,08,08,16,54,21.80
2008,08,08,16,55,21.80
2008,08,08,16,56,21.70
2008,08,08,16,57,21.60
2008,08,08,16,58,21.60
2008,08,08,16,59,21.60
2008,08,08,17,00,21.60
2008,08,08,17,01,21.70
2008,08,08,17,02,21.80
2008,08,08,17,03,21.90
2008,08,08,17,04,21.90
2008,08,08,17,05,22.00
2008,08,08,17,06,22.10
2008,08,08,17,07,22.10
2008,08,08,17,08,22.30
2008,08,08,17,09,22.30
2008,08,08,17,10,22.50
2008,08,08,17,11,22.40
2008,08,08,17,12,22.40
2008,08,08,17,13,22.60
2008,08,08,17,14,22.70
2008,08,08,17,15,22.80
2008,08,08,17,16,22.90
2008,08,08,17,17,22.90
2008,08,08,17,18,22.90
2008,08,08,17,19,22.80